Temp
74 75 73 62 57 61 51 46 49 53 61 71 72 71 73 72 74 74 76 73 73 75 76 76 76 76 75 73 73 73 74 73
70 72 70 67 68 58 53 46 43 51 54 59 68 67 70 71 70 72 73 73 74 77 76 76 76 75 75 75 74 74 73 73
65 62 65 63 58 55 56 52 49 46 53 65 67 68 70 72 72 73 75 78 79 77 76 76 76 76 75 74 73 73 73 72
62 67 67 63 63 59 53 50 49 50 55 70 69 71 72 72 74 74 74 77 78 78 75 75 75 75 75 75 75 75 74 73
56 61 65 62 63 57 57 54 51 52 55 66 64 67 71 70 71 73 74 77 79 75 73 74 74 75 75 75 75 74 74 73
57 58 61 60 65 63 60 52 53 56 63 61 65 66 68 68 70 73 71 75 75 73 75 74 75 75 74 74 75 74 73 70
57 63 64 67 67 65 60 60 57 60 59 61 63 66 70 68 70 69 68 72 74 74 72 74 74 74 74 74 74 73 72 69
54 63 64 64 68 68 68 67 64 60 63 67 65 68 67 68 70 72 71 75 75 75 76 74 75 72 69 68 67 69 68 68
49 57 58 55 65 67 69 67 68 60 68 65 63 69 69 68 72 74 75 75 74 76 74 73 69 70 68 68 69 69 69 69
50 50 45 62 65 72 70 71 67 68 68 69 68 67 69 73 72 75 78 75 72 68 70 69 69 69 70 70 69 68 68 68
50 45 54 64 68 67 67 64 67 66 69 69 70 69 67 71 73 76 77 70 69 70 71 69 69 70 68 68 68 69 68 67
47 47 48 58 66 68 68 58 67 68 68 68 68 60 59 68 69 73 72 71 72 73 71 69 68 69 68 67 67 66 65 65
48 49 55 58 64 66 57 57 64 68 66 66 60 58 63 67 67 68 68 70 71 70 69 67 66 68 67 66 63 64 66 65
47 47 50 64 64 62 62 62 67 67 66 64 64 68 67 67 67 67 68 67 67 65 65 65 65 66 64 63 64 65 65 65
51 53 61 61 59 62 63 62 68 66 68 70 67 68 68 66 66 67 66 66 66 65 64 63 63 64 63 62 63 61 62 58
52 60 62 64 65 67 66 65 68 72 73 76 75 69 67 65 65 65 65 64 64 64 62 61 62 63 62 62 62 61 58 56
52 59 63 65 65 67 70 70 73 73 74 77 75 70 67 65 63 63 63 63 63 61 61 59 60 59 60 60 60 58 56 56
53 62 62 65 68 69 68 69 70 71 70 71 72 68 67 64 64 63 62 61 60 59 59 58 58 58 58 59 58 56 55 55
59 63 63 67 67 69 68 69 73 71 70 70 71 70 68 65 63 61 61 61 60 59 57 58 57 57 57 58 58 57 55 54
MSLP
1003.65 1003.57 1004.17 1004.98 1005.95 1006.30 1008.47 1009.70 1009.40 1008.44 1006.75 1004.87 1004.22 1004.22 1003.92 1004.33 1004.92 1005.36 1005.94 1006.51 1007.03 1007.43 1007.49 1008.02 1008.59 1009.12 1009.84 1010.64 1011.22 1011.63 1012.08 1012.58
1003.45 1003.35 1003.65 1004.19 1004.96 1006.68 1008.19 1009.48 1009.82 1008.68 1007.30 1005.84 1004.61 1004.52 1004.34 1004.52 1004.64 1004.99 1005.85 1006.75 1007.51 1007.53 1006.93 1007.57 1008.19 1009.02 1009.89 1010.14 1010.51 1011.10 1011.68 1012.32
1003.70 1003.55 1003.64 1004.24 1005.15 1006.36 1007.47 1008.37 1008.90 1008.66 1007.16 1004.49 1004.58 1004.97 1004.24 1004.04 1003.85 1004.19 1004.32 1004.85 1005.19 1006.54 1006.93 1007.37 1008.01 1008.91 1009.55 1009.97 1010.42 1011.01 1011.50 1012.16
1004.39 1003.24 1003.35 1003.71 1004.34 1005.20 1006.92 1008.20 1008.23 1007.73 1005.72 1004.37 1004.40 1004.45 1004.64 1003.79 1003.43 1003.88 1004.81 1004.86 1005.10 1006.24 1007.24 1007.49 1008.02 1008.79 1009.00 1009.65 1010.09 1010.60 1011.10 1011.82
1004.85 1004.01 1003.34 1003.51 1003.63 1004.27 1005.29 1006.25 1007.24 1006.99 1005.51 1004.91 1004.74 1004.34 1004.31 1003.74 1003.68 1004.41 1004.97 1004.49 1004.00 1006.34 1007.26 1007.43 1007.84 1007.94 1008.42 1009.15 1009.76 1010.32 1010.97 1011.78
1005.20 1004.37 1003.70 1003.49 1003.32 1003.65 1004.30 1005.82 1006.17 1005.59 1004.65 1004.79 1004.75 1004.63 1004.57 1004.44 1004.45 1004.83 1005.25 1005.65 1006.11 1006.43 1007.06 1007.74 1007.72 1008.00 1008.61 1009.08 1009.28 1010.05 1010.82 1011.59
1004.30 1003.74 1003.53 1002.96 1002.86 1003.19 1003.51 1004.08 1004.70 1004.26 1004.58 1003.96 1003.96 1004.11 1004.30 1004.67 1004.78 1004.97 1005.19 1005.67 1005.69 1005.87 1006.30 1006.87 1007.38 1008.09 1008.16 1009.12 1010.01 1010.64 1011.23 1011.90
1005.22 1004.31 1003.67 1002.86 1002.22 1002.44 1002.50 1002.74 1003.24 1003.52 1003.41 1002.64 1003.39 1004.09 1004.79 1004.82 1004.82 1004.93 1005.01 1005.24 1005.15 1005.52 1005.42 1006.47 1007.68 1009.00 1010.04 1010.53 1008.77 1010.55 1011.65 1012.35
1006.16 1005.15 1004.13 1003.22 1002.17 1001.61 1001.62 1001.83 1002.28 1003.18 1002.44 1003.09 1003.92 1003.55 1003.16 1003.88 1004.34 1004.34 1004.34 1004.64 1004.84 1005.60 1005.78 1006.78 1008.57 1009.44 1009.37 1010.54 1011.97 1012.44 1012.07 1013.09
1006.89 1005.92 1004.79 1002.57 1001.52 1001.21 1001.28 1001.85 1002.38 1001.81 1002.30 1002.17 1003.04 1002.72 1003.18 1003.52 1003.49 1003.69 1003.97 1004.24 1005.60 1005.81 1006.29 1007.15 1009.00 1009.38 1009.65 1009.89 1011.05 1011.95 1012.53 1011.93
1007.62 1006.97 1005.31 1002.91 1001.98 1001.77 1001.52 1002.05 1002.06 1002.36 1002.47 1002.28 1002.84 1003.58 1003.79 1003.80 1003.90 1003.37 1003.21 1004.64 1005.33 1006.04 1006.72 1007.43 1008.54 1009.04 1009.82 1010.35 1011.38 1012.02 1012.39 1013.10
1008.12 1007.26 1005.96 1003.85 1003.18 1002.83 1002.33 1002.64 1002.80 1003.08 1003.48 1003.51 1004.04 1005.48 1005.79 1005.17 1004.02 1003.83 1004.09 1004.74 1005.50 1006.15 1006.70 1007.47 1008.56 1009.70 1010.19 1010.85 1011.69 1012.18 1012.73 1013.33
1007.80 1006.91 1005.41 1004.71 1004.08 1003.76 1003.67 1003.47 1003.08 1003.21 1004.26 1003.88 1004.68 1005.62 1005.97 1005.69 1005.80 1004.77 1004.99 1005.18 1005.69 1006.38 1006.43 1006.85 1008.80 1009.92 1010.76 1011.17 1011.76 1012.27 1012.52 1013.27
1008.11 1006.51 1005.32 1004.39 1003.72 1004.08 1003.59 1002.90 1002.38 1003.10 1003.85 1004.34 1004.02 1004.69 1005.33 1006.12 1006.81 1006.54 1006.66 1007.09 1007.05 1006.97 1007.69 1008.30 1008.97 1010.26 1011.07 1011.59 1012.11 1012.73 1012.94 1013.59
1008.07 1006.00 1004.38 1003.91 1004.39 1004.07 1003.57 1003.32 1001.58 1001.38 1002.12 1002.70 1002.95 1003.86 1003.71 1005.69 1007.35 1007.82 1006.99 1007.55 1008.24 1008.16 1008.59 1009.37 1010.11 1010.98 1011.53 1012.05 1012.52 1013.14 1014.08 1014.70
1007.73 1005.49 1004.93 1002.99 1003.84 1003.56 1003.08 1003.01 1002.05 1000.11 1000.79 1000.16 1001.30 1002.09 1004.38 1006.14 1006.67 1008.25 1007.26 1008.10 1009.05 1009.56 1009.75 1010.16 1010.41 1011.36 1012.01 1012.71 1013.16 1013.60 1014.57 1015.36
1006.92 1005.16 1004.16 1003.31 1003.69 1003.35 1003.08 1003.24 1002.78 1001.78 1001.15 1000.30 1001.34 1002.64 1004.37 1006.09 1007.81 1008.61 1008.23 1008.44 1008.87 1009.71 1010.43 1010.80 1011.25 1012.10 1012.68 1013.15 1013.38 1014.13 1014.69 1015.18
1006.01 1005.07 1004.59 1003.88 1003.60 1003.37 1003.29 1003.05 1002.97 1002.74 1002.13 1001.91 1002.22 1003.42 1005.04 1006.28 1007.48 1007.86 1008.11 1008.92 1009.82 1010.68 1010.66 1011.20 1011.65 1012.58 1013.00 1013.21 1013.39 1013.86 1014.53 1015.27
1004.67 1004.63 1004.44 1004.35 1004.00 1004.21 1004.08 1003.52 1002.94 1002.98 1003.06 1003.31 1003.93 1004.56 1004.84 1006.22 1007.43 1007.16 1008.38 1009.56 1010.59 1010.83 1011.42 1011.57 1012.15 1012.75 1013.19 1013.25 1013.32 1013.76 1014.34 1015.10
Wind_Speed
3 4 8 3 3 6 8 4 4 4 7 10 6 3 7 5 9 15 15 12 10 7 8 10 11 12 12 11 8 8 8 6
2 3 1 6 6 4 3 5 3 5 4 7 2 5 7 8 11 9 3 5 2 7 10 8 10 9 10 11 12 9 8 7
3 3 5 2 1 5 5 5 7 3 8 9 7 7 10 8 9 14 16 12 14 11 7 10 10 11 11 10 10 9 8 7
11 5 1 2 6 8 7 5 2 4 9 3 8 8 8 13 15 10 11 8 8 7 7 10 12 11 11 10 11 10 9 8
12 9 4 3 4 5 4 4 6 7 7 3 3 5 8 12 9 10 10 10 12 5 9 12 13 13 12 12 11 10 10 9
11 10 4 4 4 3 8 4 4 7 9 6 7 8 8 4 3 7 9 9 14 8 9 8 10 11 10 11 11 11 10 8
6 6 6 6 5 4 3 6 6 6 9 8 12 14 14 6 8 7 9 13 14 13 11 12 11 11 12 8 8 9 10 9
3 5 5 3 4 6 6 5 5 2 8 8 6 8 5 8 11 14 12 15 13 14 15 13 12 3 9 13 16 6 4 6
5 5 1 4 8 5 6 3 6 7 9 4 4 14 17 16 16 19 17 12 13 13 10 7 11 12 20 13 10 12 6 6
3 4 1 11 4 5 6 4 2 0 3 10 9 3 3 11 18 18 15 11 7 6 7 10 15 14 15 12 11 11 11 13
4 4 6 4 6 3 7 0 4 4 6 10 8 5 4 2 7 17 18 6 8 6 7 12 13 12 9 10 12 12 8 6
3 3 5 5 5 11 6 3 4 4 8 7 5 3 5 11 7 7 7 9 12 11 11 15 10 9 12 12 11 9 7 8
3 4 7 0 10 7 5 9 2 12 10 11 7 6 3 9 10 8 7 10 14 13 10 11 12 11 11 10 8 8 9 8
0 3 4 3 9 6 3 4 14 12 10 10 11 11 11 9 7 9 13 10 12 10 8 7 7 10 11 10 7 7 9 10
7 6 3 4 6 8 1 9 6 14 9 11 13 9 13 9 6 3 10 9 10 11 11 6 7 6 11 7 10 10 8 7
4 4 8 3 5 4 4 8 12 6 11 14 9 12 9 9 10 5 7 9 8 10 9 7 7 7 7 8 8 9 8 7
6 8 7 0 5 5 5 8 10 6 7 10 9 8 15 12 7 6 8 6 6 7 7 7 8 7 6 7 9 8 8 7
6 5 3 3 4 3 6 10 9 7 4 1 6 12 12 12 12 11 11 8 7 6 9 7 8 7 6 6 8 8 7 5
6 4 6 6 3 6 7 10 9 7 6 2 3 8 14 12 8 12 10 9 9 9 8 8 8 7 5 6 7 7 7 6
Wind_Direction
166 159 144 243 172 188 104 19 71 246 297 305 104 348 249 157 165 201 204 199 197 211 171 170 161 159 158 160 164 159 166 162
254 146 259 158 170 75 359 132 218 283 257 234 278 224 241 168 193 212 157 116 195 231 166 160 148 145 156 163 162 162 157 152
86 171 223 38 341 30 120 127 162 210 259 216 181 204 195 192 194 179 189 178 160 186 174 150 146 158 160 161 153 159 153 147
223 256 241 189 224 158 135 221 170 160 269 43 173 168 211 178 191 156 91 127 145 149 161 160 159 169 163 169 164 164 157 154
334 352 14 208 181 147 132 92 189 142 262 51 194 182 196 182 193 128 124 167 197 136 175 177 178 174 173 177 171 163 156 155
214 206 165 277 190 170 125 114 190 223 238 210 204 187 187 211 121 146 152 165 205 174 184 198 187 181 180 185 168 160 150 138
225 209 178 195 240 172 153 178 158 242 203 210 196 190 183 158 141 169 172 178 179 172 182 192 186 185 193 171 159 150 140 129
269 238 256 286 270 169 207 198 246 227 284 204 144 112 142 180 178 190 203 194 186 190 180 186 181 121 52 57 65 35 60 105
286 350 303 4 246 234 228 179 151 184 231 121 160 183 185 178 191 198 206 200 185 178 183 145 107 116 103 135 130 134 160 98
218 21 298 239 289 250 234 96 278 347 204 177 188 198 224 191 186 204 213 203 140 145 111 113 120 133 153 161 129 126 146 148
156 180 277 287 329 193 171 246 335 274 139 141 138 70 329 307 245 218 219 104 120 132 125 122 131 146 139 126 135 153 141 142
124 156 218 251 347 336 314 297 333 339 62 89 107 115 286 333 309 222 161 131 143 141 146 126 129 133 136 140 149 142 148 137
167 192 278 353 298 302 153 224 207 100 73 70 102 163 290 7 352 53 59 112 122 136 150 120 133 140 143 144 143 138 133 121
257 143 271 5 344 181 304 175 140 115 135 108 109 113 90 42 27 68 89 84 98 109 124 123 108 127 138 139 129 123 122 119
190 243 251 168 222 283 356 267 201 132 159 162 164 114 121 123 104 114 99 96 107 127 126 90 101 125 131 123 131 123 115 119
2 271 254 89 292 269 318 302 304 152 181 144 165 132 132 129 136 183 108 113 115 114 121 122 98 99 113 130 125 118 120 131
265 287 279 169 224 245 265 298 287 242 270 156 145 92 125 133 130 143 119 112 99 113 116 94 98 106 125 134 131 131 135 141
227 242 263 291 283 259 242 229 250 261 304 97 81 114 130 141 160 156 126 107 104 125 122 125 114 125 137 143 134 132 124 133
223 111 240 247 357 269 273 286 261 273 276 4 126 154 155 146 164 123 123 129 151 142 132 125 125 127 155 154 137 131 135 148